TimeAKDT,TemperatureF,Dew PointF,Humidity,Sea Level PressureIn,VisibilityMPH,Wind Direction,Wind SpeedMPH,Gust SpeedMPH,PrecipitationIn,Events,Conditions,WindDirDegrees,DateUTC
12:06 AM,32.0,30.2,93,30.22,0.8,NNW,8.1,-,0.01,Snow,Light Snow,340,2012-10-08 08:06:00
12:13 AM,32.0,30.2,93,30.22,2.0,North,11.5,-,0.02,Snow,Light Snow,350,2012-10-08 08:13:00
12:26 AM,33.8,28.4,81,30.22,8.0,North,9.2,-,0.02,Snow,Light Snow,10,2012-10-08 08:26:00
12:39 AM,32.0,28.4,87,30.23,2.5,NNW,12.7,-,0.02,Snow,Light Snow,340,2012-10-08 08:39:00
12:42 AM,32.0,30.2,93,30.23,1.8,NNW,12.7,-,0.02,Snow,Light Snow,340,2012-10-08 08:42:00
12:53 AM,32.0,28.9,88,30.24,1.0,North,12.7,-,0.03,Snow,Light Snow,350,2012-10-08 08:53:00
12:58 AM,32.0,28.4,87,30.23,3.0,NNW,11.5,-,0.00,Snow,Light Snow,340,2012-10-08 08:58:00
1:12 AM,32.0,28.4,87,30.23,1.8,North,13.8,-,0.00,Snow,Light Snow,360,2012-10-08 09:12:00
1:24 AM,32.0,30.2,93,30.23,2.0,NNW,15.0,21.9,0.01,Snow,Light Snow,340,2012-10-08 09:24:00
1:29 AM,32.0,28.4,87,30.24,7.0,NNW,17.3,21.9,0.01,Snow,Light Snow,330,2012-10-08 09:29:00
1:31 AM,32.0,28.4,87,30.24,8.0,NNW,16.1,-,0.01,Snow,Light Snow,330,2012-10-08 09:31:00
1:53 AM,32.0,28.9,88,30.25,2.0,North,12.7,-,0.01,Snow,Light Snow,360,2012-10-08 09:53:00
2:01 AM,32.0,28.4,87,30.24,1.5,North,12.7,-,0.00,Snow,Light Snow,10,2012-10-08 10:01:00
2:10 AM,32.0,28.4,87,30.25,2.0,North,10.4,-,0.00,Snow,Light Snow,360,2012-10-08 10:10:00
2:19 AM,32.0,28.4,87,30.25,6.0,North,9.2,-,0.00,Snow,Light Snow,10,2012-10-08 10:19:00
2:53 AM,32.0,28.0,85,30.26,3.0,NE,8.1,-,0.00,Snow,Light Snow,40,2012-10-08 10:53:00
2:58 AM,32.0,28.4,87,30.26,1.8,NNE,11.5,-,0.00,Snow,Light Snow,20,2012-10-08 10:58:00
3:01 AM,32.0,28.4,87,30.26,0.8,NNE,9.2,-,0.00,Snow,Light Snow,20,2012-10-08 11:01:00
3:08 AM,30.2,28.4,93,30.26,0.5,NNE,12.7,-,0.02,Snow,Light Snow,30,2012-10-08 11:08:00
3:17 AM,30.2,28.4,93,30.26,1.0,NNE,11.5,-,0.03,Snow,Light Snow,20,2012-10-08 11:17:00
3:29 AM,30.2,28.4,93,30.27,2.0,NNE,12.7,-,0.03,Snow,Light Snow,30,2012-10-08 11:29:00
3:35 AM,30.2,26.6,86,30.27,1.8,NNE,13.8,-,0.03,Snow,Light Snow,20,2012-10-08 11:35:00
3:42 AM,30.2,26.6,86,30.27,2.0,NNE,11.5,-,0.03,Snow,Light Snow,30,2012-10-08 11:42:00
3:49 AM,30.2,26.6,86,30.27,2.5,NNE,12.7,-,0.03,Snow,Light Snow,20,2012-10-08 11:49:00
3:53 AM,30.9,27.0,85,30.28,2.5,NNE,12.7,-,0.03,Snow,Light Snow,20,2012-10-08 11:53:00
4:05 AM,32.0,26.6,80,30.28,4.0,North,9.2,-,0.00,Snow,Light Snow,10,2012-10-08 12:05:00
4:21 AM,32.0,24.8,75,30.28,5.0,North,13.8,-,0.00,Snow,Light Snow,360,2012-10-08 12:21:00
4:32 AM,32.0,24.8,75,30.28,5.0,North,13.8,-,0.00,Snow,Light Snow,360,2012-10-08 12:32:00
4:53 AM,30.9,25.0,79,30.29,5.0,North,8.1,-,0.00,Snow,Light Snow,10,2012-10-08 12:53:00
5:16 AM,32.0,24.8,75,30.29,7.0,North,8.1,16.1,0.00,Snow,Light Snow,10,2012-10-08 13:16:00
5:34 AM,30.2,24.8,80,30.29,5.0,North,10.4,-,0.00,Snow,Light Snow,10,2012-10-08 13:34:00
5:53 AM,32.0,24.1,73,30.30,8.0,NNE,6.9,-,0.00,Snow,Light Snow,30,2012-10-08 13:53:00
6:53 AM,30.9,25.0,79,30.32,7.0,NNW,11.5,-,0.00,Snow,Light Snow,330,2012-10-08 14:53:00
7:53 AM,30.9,26.1,82,30.33,7.0,North,15.0,-,0.00,Snow,Light Snow,350,2012-10-08 15:53:00
8:53 AM,30.9,24.1,76,30.34,9.0,NNW,10.4,-,0.00,,Overcast,330,2012-10-08 16:53:00
9:53 AM,30.9,24.1,76,30.36,10.0,NW,13.8,-,N/A,,Overcast,320,2012-10-08 17:53:00
10:53 AM,30.9,19.9,64,30.38,10.0,WNW,15.0,-,N/A,,Overcast,300,2012-10-08 18:53:00
11:53 AM,30.9,19.0,61,30.39,10.0,NW,10.4,-,N/A,,Overcast,310,2012-10-08 19:53:00
12:53 PM,30.9,23.0,72,30.40,10.0,WNW,13.8,-,N/A,,Scattered Clouds,300,2012-10-08 20:53:00
1:53 PM,30.0,25.0,82,30.42,1.8,WNW,19.6,-,0.00,Snow,Light Snow,300,2012-10-08 21:53:00
1:55 PM,30.2,24.8,80,30.42,1.2,WNW,18.4,-,0.00,Snow,Light Snow,300,2012-10-08 21:55:00
2:04 PM,30.2,24.8,80,30.42,3.0,WNW,15.0,-,0.00,Snow,Light Snow,290,2012-10-08 22:04:00
2:17 PM,32.0,23.0,69,30.41,8.0,WNW,16.1,-,0.00,,Mostly Cloudy,300,2012-10-08 22:17:00
2:45 PM,32.0,24.8,75,30.42,9.0,WNW,20.7,-,0.00,Snow,Light Snow,290,2012-10-08 22:45:00
2:53 PM,32.0,24.1,73,30.43,9.0,WNW,18.4,-,0.00,,Mostly Cloudy,300,2012-10-08 22:53:00
3:53 PM,30.9,24.1,76,30.44,10.0,WNW,15.0,-,N/A,,Mostly Cloudy,300,2012-10-08 23:53:00
4:53 PM,30.9,21.9,69,30.45,10.0,WNW,18.4,-,N/A,,Overcast,290,2012-10-09 00:53:00
5:53 PM,30.9,25.0,79,30.47,6.0,WNW,16.1,-,0.00,Snow,Light Snow,290,2012-10-09 01:53:00
6:53 PM,30.9,24.1,76,30.47,10.0,WNW,20.7,25.3,0.00,,Overcast,290,2012-10-09 02:53:00
7:53 PM,32.0,24.1,73,30.48,10.0,WNW,20.7,-,N/A,,Overcast,290,2012-10-09 03:53:00
8:53 PM,32.0,26.1,79,30.48,10.0,WNW,21.9,-,N/A,,Overcast,290,2012-10-09 04:53:00
9:53 PM,33.1,27.0,78,30.49,9.0,NW,18.4,-,0.00,Snow,Light Snow,310,2012-10-09 05:53:00
10:53 PM,33.1,26.1,75,30.51,10.0,WNW,16.1,-,0.00,,Mostly Cloudy,300,2012-10-09 06:53:00
11:36 PM,33.8,26.6,75,30.51,9.0,WNW,17.3,-,0.00,Snow,Light Snow,300,2012-10-09 07:36:00
11:44 PM,32.0,26.6,80,30.51,9.0,WNW,20.7,-,0.00,Snow,Light Snow,290,2012-10-09 07:44:00
11:53 PM,33.8,26.6,75,30.51,9.0,WNW,16.1,-,N/A,Snow,Light Snow,300,2012-10-09 07:53:00